Lexington Weather

Lexington, Massachusetts, USA

25°F
2/26/2021 7:31am 
  • Lexington Conditions: Clear
  • Temperature: 24.8°F / -4.0°CColder 0.4°F than last hour.
  • Dew Point: 15.4°F 
  • Relative Humidity: 67%Increased 1.0% since last hour.
  • Wind: Calm, 10-min avg: Calm, gust: None
  • Barometer: 30.35 inRising 0.04  inHg/hr Rising Slowly
  • Visibility: 10 miles
  • Snow Today: 0.0 in
  •   

Regional Weather Roundup
for Boston / Norton, MA

        
000
ASUS41 KBOX 261104
RWRBOX

REGIONAL WEATHER ROUNDUP
NATIONAL WEATHER SERVICE BOSTON/NORTON MA
600 AM EST FRI FEB 26 2021

NOTE:  "FAIR" INDICATES FEW OR NO CLOUDS BELOW 12,000 FEET WITH NO 
SIGNIFICANT WEATHER AND/OR OBSTRUCTIONS TO VISIBILITY.

MAZALL-261200-
EASTERN MASSACHUSETTS
  
CITY           SKY/WX    TMP DP  RH WIND       PRES   REMARKS
BOSTON         PTCLDY    29  11  47 W7        30.33R WCI  22          
BEVERLY        CLEAR     25  14  63 CALM      30.32R                  
LAWRENCE       CLEAR     24  12  60 VRB3      30.34R                  
BEDFORD        CLEAR     21  12  68 CALM      30.32R                  
BLUE HILL        N/A     23  14  68 W10       30.28R WCI  12          
NORWOOD        CLEAR     21  15  78 CALM      30.33R                  
MARSHFIELD     CLEAR     28  12  50 VRB3      30.32R                  
PLYMOUTH       CLEAR     27  10  49 W6        30.32R WCI  20          
TAUNTON        CLEAR     21  11  65 W3        30.33R                  
NEW BEDFORD    CLEAR     25  15  66 CALM      30.33R                  
$$

MAZALL-261200-
CAPE COD AND THE ISLANDS
  
CITY           SKY/WX    TMP DP  RH WIND       PRES   REMARKS
FALMOUTH       CLEAR     27   9  46 NW9       30.32R WCI  17          
HYANNIS        CLEAR     29  12  49 NW5       30.31R WCI  24          
CHATHAM        CLEAR     31  16  54 NW6       30.33R WCI  25          
PROVINCETOWN   CLEAR     32  19  58 NW16      30.33R WCI  21          
NANTUCKET      PTCLDY    32  11  41 NW12      30.33R WCI  23          
MARTHAS VNYRD  PTCLDY    27  11  51 W3        30.34R                  
$$
 
MAZALL-261200-
CENTRAL AND WESTERN MASSACHUSETTS
  
CITY           SKY/WX    TMP DP  RH WIND       PRES   REMARKS
WORCESTER      CLEAR     25  10  53 W9        30.28R WCI  15          
FITCHBURG      CLEAR     22  15  75 CALM      30.32R                  
ORANGE         PTCLDY    19  13  77 CALM      30.32R                  
SPRINGFIELD    CLEAR     26  14  60 W6        30.33R WCI  20          
WESTFIELD      CLEAR     24  16  71 CALM      30.34R                  
NORTH ADAMS    CLOUDY    27  16  63 W9        30.33R WCI  18          
PITTSFIELD     MOCLDY    22  15  75 W6        30.28R WCI  14          
$$
 
RIZALL-261200-
RHODE ISLAND
  
CITY           SKY/WX    TMP DP  RH WIND       PRES   REMARKS
PROVIDENCE     PTCLDY    30  12  47 NW7       30.34R WCI  23          
NEWPORT        CLEAR     30  14  51 NW8       30.33R WCI  22          
BLOCK ISLAND   PTCLDY    30  17  58 N8G17     30.37R WCI  22          
SMITHFIELD     CLEAR     27  13  55 NW5       30.32R WCI  22          
WESTERLY       PTCLDY    25  14  63 CALM      30.35R                  
$$
 
CTZALL-261200-
CONNECTICUT
  
CITY           SKY/WX    TMP DP  RH WIND       PRES   REMARKS
BRADLEY INTL   PTCLDY    26  15  63 CALM      30.35R                  
HARTFORD       CLEAR     29  15  56 CALM      30.36R                  
BRIDGEPORT     NOT AVBL                                               
DANBURY        CLEAR     23  15  71 CALM      30.37R                  
GROTON         PTCLDY    28  15  58 CALM      30.35R                  
NEW HAVEN      PTCLDY    29  17  61 CALM      30.37R                  
CHESTER        FAIR      28  16  59 NW8       30.33R WCI  20          
MERIDEN        CLEAR     20  16  84 CALM      30.37R                  
WILLIMANTIC    CLEAR     27  15  61 NW3       30.36R                  
OXFORD         CLEAR     21  16  81 N5        30.34R WCI  15          
$$

MEZ002-015-021-024-NHZ003-005-008-011-012-014-VTZ005-008-261200-
NORTHERN NEW ENGLAND
  
CITY           SKY/WX    TMP DP  RH WIND       PRES   REMARKS
PORTLAND ME    PTCLDY    19   8  62 N6        30.30R WCI  11          
BANGOR ME      PTCLDY    14   1  56 NW7       30.27R WCI   4          
CONCORD NH     CLEAR     20   8  60 NW7       30.32R WCI  11          
MANCHESTER NH  CLEAR     24  10  55 NW6       30.31R WCI  17          
NASHUA NH      CLEAR     22  14  71 CALM      30.33R                  
PORTSMOUTH NH  CLEAR     23   6  49 W6        30.30R WCI  15          
JAFFREY NH     CLEAR     18  10  71 CALM      30.27R                  
KEENE NH       CLEAR     18  14  84 S5        30.32R WCI  11          
BURLINGTON VT  MOCLDY    19   7  59 N6        30.38R WCI  11          
MT. WASHINGTON NOT AVBL                                               
$$

NYZ052-076-261200-
EASTERN NEW YORK
  
CITY           SKY/WX    TMP DP  RH WIND       PRES   REMARKS
ALBANY         MOCLDY    25  17  72 W5        30.36R WCI  19          
NEW YORK CITY  MOCLDY    36  13  38 N8        30.38R WCI  30          
$$
 
ANZALL-261200-
MARINE OBSERVATIONS
  
STATION/POSITION TIME  TEMP    WIND        PRES    VSBY  WAVE
                       AIR SEA DIR/SP/G                  HT/PER
                 (UTC) (F)     (DEG/KT/KT) (MB)    (MI)  (FT/S)
BOSTON BUOY      1040   32 39  310/ 14/ 17 1027.3R
BUZZARDS BAY     1000          310/ 13/ 16 1027.5R
NANTUCKET SOUND  1040      37  310/ 14/ 16   N/A
MASS BAY-STELLWA 1004   31     330/ 14/ 17 1025.2R  1 7/8  2/ 8
ISLE OF SHOALS   1000   28     320/ 12/ 14 1025.3R
S OF BLOCK IS    1026      40                N/A           3/ 4
$$

......................KEY.........................
  SKY/WX - SKY CONDITION/PRESENT WEATHER
  TMP    - TEMPERATURE IN FAHRENHEIT
  DWPT   - DEWPOINT IN FAHRENHEIT
  RH     - RELATIVE HUMIDITY IN PERCENT
  WIND   - DIRECTION AND SPEED IN MPH
  PRES   - MEAN SEA LEVEL PRESSURE IN INCHES OF HG
  WCI    - WIND CHILL INDEX
  VSB    - VISIBILITY IN MILES
  HX     - HEAT INDEX
  TC     - TEMPERATURE IN CELSIUS
  VRB    - VARIABLE WIND DIRECTION
  N/A    - NOT AVAILABLE
  
      

Other recent Regional Weather Roundups

Fri Feb 26, 7:04am

Fri Feb 26, 5:04am

Fri Feb 26, 4:04am

Fri Feb 26, 3:04am

Fri Feb 26, 2:04am

Fri Feb 26, 1:04am

Fri Feb 26, 12:04am

Thu Feb 25, 11:04pm

Thu Feb 25, 10:04pm

Thu Feb 25, 9:04pm

Thu Feb 25, 8:05pm

Thu Feb 25, 7:05pm

Thu Feb 25, 6:04pm

Thu Feb 25, 5:04pm

Thu Feb 25, 4:05pm

Thu Feb 25, 3:05pm

Thu Feb 25, 2:04pm

Thu Feb 25, 1:04pm

Thu Feb 25, 12:05pm

Thu Feb 25, 11:04am

Thu Feb 25, 10:04am

Thu Feb 25, 9:04am

Thu Feb 25, 8:04am

Thu Feb 25, 7:04am

Thu Feb 25, 6:04am

Thu Feb 25, 5:04am

Thu Feb 25, 4:04am

Thu Feb 25, 3:04am

Thu Feb 25, 2:04am

Thu Feb 25, 1:04am

Thu Feb 25, 12:04am

Wed Feb 24, 11:04pm

Wed Feb 24, 10:05pm

Wed Feb 24, 9:04pm

Wed Feb 24, 8:04pm

Wed Feb 24, 7:04pm

Wed Feb 24, 6:04pm

Wed Feb 24, 5:04pm

Wed Feb 24, 4:04pm

Wed Feb 24, 3:04pm

Wed Feb 24, 2:05pm

Wed Feb 24, 1:05pm

Wed Feb 24, 12:05pm

Wed Feb 24, 11:04am

Wed Feb 24, 10:04am

Wed Feb 24, 9:04am

Wed Feb 24, 8:04am

Wed Feb 24, 7:04am

Wed Feb 24, 6:04am

Wed Feb 24, 5:04am

Wed Feb 24, 4:04am

Wed Feb 24, 3:04am

Wed Feb 24, 2:04am

Wed Feb 24, 1:04am

Wed Feb 24, 12:04am

Tue Feb 23, 11:04pm

Tue Feb 23, 10:04pm

Tue Feb 23, 9:04pm

Tue Feb 23, 8:05pm

Tue Feb 23, 7:04pm

Tue Feb 23, 6:04pm

Tue Feb 23, 5:04pm

Tue Feb 23, 4:05pm

Tue Feb 23, 3:04pm

Tue Feb 23, 2:04pm

Tue Feb 23, 1:04pm

Tue Feb 23, 12:04pm

Tue Feb 23, 11:04am

Tue Feb 23, 10:04am

Tue Feb 23, 9:04am

Tue Feb 23, 7:04am

Tue Feb 23, 6:04am

Tue Feb 23, 5:04am

Tue Feb 23, 4:04am

Tue Feb 23, 3:04am

Tue Feb 23, 2:04am

Tue Feb 23, 1:04am

Tue Feb 23, 12:04am

Mon Feb 22, 11:04pm

Mon Feb 22, 10:04pm

Mon Feb 22, 9:04pm

Mon Feb 22, 8:04pm

Mon Feb 22, 7:04pm

Mon Feb 22, 6:04pm

Mon Feb 22, 5:04pm

Mon Feb 22, 4:05pm

Mon Feb 22, 3:04pm

Mon Feb 22, 2:05pm

Mon Feb 22, 1:04pm

Mon Feb 22, 12:05pm

Mon Feb 22, 11:04am

Mon Feb 22, 10:04am

Mon Feb 22, 9:05am

Mon Feb 22, 8:04am

Mon Feb 22, 7:04am

Mon Feb 22, 6:04am

Mon Feb 22, 5:04am

Mon Feb 22, 4:04am

Mon Feb 22, 3:04am

Mon Feb 22, 2:04am

Mon Feb 22, 1:04am

Mon Feb 22, 12:04am

Sun Feb 21, 11:04pm

Sun Feb 21, 10:05pm

Sun Feb 21, 9:04pm

Sun Feb 21, 8:04pm

Sun Feb 21, 7:04pm

Sun Feb 21, 6:04pm

Sun Feb 21, 5:04pm

Sun Feb 21, 4:05pm

Sun Feb 21, 3:04pm

Sun Feb 21, 2:04pm

Sun Feb 21, 1:05pm

Sun Feb 21, 12:05pm

Sun Feb 21, 11:04am

Sun Feb 21, 10:05am

Sun Feb 21, 9:04am

Sun Feb 21, 8:04am

Sun Feb 21, 7:04am

Sun Feb 21, 6:04am

Sun Feb 21, 5:04am

Sun Feb 21, 4:04am

Sun Feb 21, 3:04am

Sun Feb 21, 2:04am

Sun Feb 21, 1:04am

Sun Feb 21, 12:04am

Sat Feb 20, 11:04pm

Sat Feb 20, 10:04pm

Sat Feb 20, 9:04pm

Sat Feb 20, 8:04pm

Sat Feb 20, 7:04pm

Sat Feb 20, 6:04pm

Sat Feb 20, 5:04pm

Sat Feb 20, 4:05pm

Sat Feb 20, 3:04pm

Sat Feb 20, 2:04pm

Sat Feb 20, 1:05pm

Sat Feb 20, 12:05pm

Sat Feb 20, 11:04am

Sat Feb 20, 10:05am

Sat Feb 20, 9:04am

Sat Feb 20, 8:04am

Sat Feb 20, 7:04am

Sat Feb 20, 6:04am

Sat Feb 20, 5:04am

Sat Feb 20, 4:04am

Sat Feb 20, 3:04am

Sat Feb 20, 2:04am

Sat Feb 20, 1:04am

Sat Feb 20, 12:04am

Fri Feb 19, 11:04pm

Fri Feb 19, 10:05pm

Fri Feb 19, 9:04pm

Fri Feb 19, 8:04pm

Fri Feb 19, 7:04pm

Fri Feb 19, 6:04pm

Fri Feb 19, 5:04pm

Fri Feb 19, 4:05pm

Fri Feb 19, 3:04pm

Fri Feb 19, 2:04pm

Fri Feb 19, 1:05pm

Fri Feb 19, 12:05pm

Fri Feb 19, 11:04am

Fri Feb 19, 10:04am

Fri Feb 19, 9:04am

Fri Feb 19, 8:04am

Meta data:

ID: 9c7a7946-4d28-4094-be00-a10f09532837
Link: https://api.weather.gov/products/9c7a7946-4d28-4094-be00-a10f09532837